sep=,
ESTACION,FECHA,NIVEL(m),CAUDAL RIO(m³/s),CAUDAL CANAL(m³/s),CAUDAL TOTAL(m³/s),PLUVIOMETRIA(l/m²),TEMPERATURA AIRE(ºC),CONDUCTIVIDAD(µS/cm),pH,SOLIDOS EN SUSPENSION(mg/l),TEMPERATURA AGUA(ºC),TURBIDEZ(NTU),OXIGENO(mg/l),MATERIA ORGANICA(1/m),FOSFATOS(mg/l),AMONIO(mg/l)
AFORALEKUA,DATA,MAILA(m),IBAI EMARIA(m³/s),KANAL EMARIA(m³/s),EMARI TOTALA(m³/s),PLUBIOMETRIA(l/m²),HAIZE TENPERATURA(ºC),KONDUKTIBITATEA(µS/cm),pH,SOLIDO ESEKIAK(mg/l),UR TENPERATURA(ºC),UHERTASUNA(NTU),OXIGENOA(mg/l),MATERIA ORGANIKOA(1/m),FOSFATOAK(mg/l),AMONIOA(mg/l)
AGAUNTZA,1990-10-01,0.095,0.087,-,0.087,-,-,-,-,-,-,-,-,-,-,-
AGAUNTZA,1990-10-02,0.089,0.074,-,0.074,-,-,-,-,-,-,-,-,-,-,-
AGAUNTZA,1990-10-03,0.084,0.064,-,0.064,-,-,-,-,-,-,-,-,-,-,-
AGAUNTZA,1990-10-04,0.141,0.258,-,0.258,-,-,-,-,-,-,-,-,-,-,-
AGAUNTZA,1990-10-05,0.126,0.184,-,0.184,-,-,-,-,-,-,-,-,-,-,-
AGAUNTZA,1990-10-06,0.086,0.069,-,0.069,-,-,-,-,-,-,-,-,-,-,-
AGAUNTZA,1990-10-07,0.093,0.086,-,0.086,-,-,-,-,-,-,-,-,-,-,-
AGAUNTZA,1990-10-08,0.188,0.501,-,0.501,-,-,-,-,-,-,-,-,-,-,-
AGAUNTZA,1990-10-09,0.137,0.223,-,0.223,-,-,-,-,-,-,-,-,-,-,-
AGAUNTZA,1990-11-08,0.032,-,-,-,-,-,-,-,-,-,-,-,-,-,-
AGAUNTZA,1990-11-09,0.1,0.1,-,0.1,-,-,-,-,-,-,-,-,-,-,-
AGAUNTZA,1990-11-10,0.107,0.12,-,0.12,-,-,-,-,-,-,-,-,-,-,-
AGAUNTZA,1990-11-11,0.139,0.229,-,0.229,-,-,-,-,-,-,-,-,-,-,-
AGAUNTZA,1990-11-12,0.118,0.151,-,0.151,-,-,-,-,-,-,-,-,-,-,-
AGAUNTZA,1990-11-13,0.106,0.115,-,0.115,-,-,-,-,-,-,-,-,-,-,-
AGAUNTZA,1990-11-14,0.102,0.104,-,0.104,-,-,-,-,-,-,-,-,-,-,-
AGAUNTZA,1990-11-15,0.095,0.088,-,0.088,-,-,-,-,-,-,-,-,-,-,-
AGAUNTZA,1990-11-16,0.092,0.081,-,0.081,-,-,-,-,-,-,-,-,-,-,-
AGAUNTZA,1990-11-17,0.101,0.103,-,0.103,-,-,-,-,-,-,-,-,-,-,-
AGAUNTZA,1990-11-18,0.095,0.089,-,0.089,-,-,-,-,-,-,-,-,-,-,-
AGAUNTZA,1990-11-19,0.11,0.142,-,0.142,-,-,-,-,-,-,-,-,-,-,-
AGAUNTZA,1990-11-20,0.157,0.307,-,0.307,-,-,-,-,-,-,-,-,-,-,-
AGAUNTZA,1990-11-21,0.249,1.193,-,1.193,-,-,-,-,-,-,-,-,-,-,-
AGAUNTZA,1990-11-22,0.234,0.851,-,0.851,-,-,-,-,-,-,-,-,-,-,-
AGAUNTZA,1990-11-23,0.198,0.547,-,0.547,-,-,-,-,-,-,-,-,-,-,-
AGAUNTZA,1990-11-24,0.28,1.31,-,1.31,-,-,-,-,-,-,-,-,-,-,-
AGAUNTZA,1990-11-25,0.289,1.429,-,1.429,-,-,-,-,-,-,-,-,-,-,-
AGAUNTZA,1990-11-26,0.212,0.651,-,0.651,-,-,-,-,-,-,-,-,-,-,-
AGAUNTZA,1990-11-27,0.354,2.732,-,2.732,-,-,-,-,-,-,-,-,-,-,-
AGAUNTZA,1990-11-28,0.338,2.114,-,2.114,-,-,-,-,-,-,-,-,-,-,-
AGAUNTZA,1990-11-29,0.389,2.984,-,2.984,-,-,-,-,-,-,-,-,-,-,-
AGAUNTZA,1990-11-30,0.308,1.665,-,1.665,-,-,-,-,-,-,-,-,-,-,-
AGAUNTZA,1990-12-01,0.24,0.888,-,0.888,-,-,-,-,-,-,-,-,-,-,-
AGAUNTZA,1990-12-02,0.21,0.632,-,0.632,-,-,-,-,-,-,-,-,-,-,-
AGAUNTZA,1990-12-03,0.185,0.458,-,0.458,-,-,-,-,-,-,-,-,-,-,-
AGAUNTZA,1990-12-04,0.165,0.349,-,0.349,-,-,-,-,-,-,-,-,-,-,-
AGAUNTZA,1990-12-05,0.15,0.275,-,0.275,-,-,-,-,-,-,-,-,-,-,-
AGAUNTZA,1990-12-06,0.141,0.235,-,0.235,-,-,-,-,-,-,-,-,-,-,-
AGAUNTZA,1990-12-07,0.133,0.201,-,0.201,-,-,-,-,-,-,-,-,-,-,-
AGAUNTZA,1990-12-08,0.133,0.204,-,0.204,-,-,-,-,-,-,-,-,-,-,-
AGAUNTZA,1990-12-09,0.197,0.573,-,0.573,-,-,-,-,-,-,-,-,-,-,-
AGAUNTZA,1990-12-10,0.371,2.77,-,2.77,-,-,-,-,-,-,-,-,-,-,-
AGAUNTZA,1990-12-11,0.82,15.106,-,15.106,-,-,-,-,-,-,-,-,-,-,-
AGAUNTZA,1990-12-12,0.774,13.695,-,13.695,-,-,-,-,-,-,-,-,-,-,-
AGAUNTZA,1990-12-13,0.771,13.517,-,13.517,-,-,-,-,-,-,-,-,-,-,-
AGAUNTZA,1990-12-14,0.502,5.447,-,5.447,-,-,-,-,-,-,-,-,-,-,-
AGAUNTZA,1990-12-15,0.381,2.829,-,2.829,-,-,-,-,-,-,-,-,-,-,-
AGAUNTZA,1990-12-16,0.31,1.689,-,1.689,-,-,-,-,-,-,-,-,-,-,-
AGAUNTZA,1990-12-17,0.267,1.153,-,1.153,-,-,-,-,-,-,-,-,-,-,-
AGAUNTZA,1990-12-18,0.24,0.878,-,0.878,-,-,-,-,-,-,-,-,-,-,-
AGAUNTZA,1990-12-19,0.221,0.719,-,0.719,-,-,-,-,-,-,-,-,-,-,-
AGAUNTZA,1990-12-20,0.202,0.573,-,0.573,-,-,-,-,-,-,-,-,-,-,-
AGAUNTZA,1990-12-21,0.189,0.484,-,0.484,-,-,-,-,-,-,-,-,-,-,-
AGAUNTZA,1990-12-22,0.179,0.423,-,0.423,-,-,-,-,-,-,-,-,-,-,-
AGAUNTZA,1990-12-23,0.173,0.389,-,0.389,-,-,-,-,-,-,-,-,-,-,-
AGAUNTZA,1990-12-24,0.166,0.352,-,0.352,-,-,-,-,-,-,-,-,-,-,-
AGAUNTZA,1990-12-25,0.169,0.368,-,0.368,-,-,-,-,-,-,-,-,-,-,-
AGAUNTZA,1990-12-26,0.272,1.316,-,1.316,-,-,-,-,-,-,-,-,-,-,-
AGAUNTZA,1990-12-27,0.348,2.368,-,2.368,-,-,-,-,-,-,-,-,-,-,-
AGAUNTZA,1990-12-28,0.377,2.788,-,2.788,-,-,-,-,-,-,-,-,-,-,-
AGAUNTZA,1990-12-29,0.357,2.402,-,2.402,-,-,-,-,-,-,-,-,-,-,-
AGAUNTZA,1990-12-30,0.347,2.241,-,2.241,-,-,-,-,-,-,-,-,-,-,-
AGAUNTZA,1990-12-31,0.287,1.39,-,1.39,-,-,-,-,-,-,-,-,-,-,-
AGAUNTZA,1991-01-01,0.27,1.183,-,1.183,-,-,-,-,-,-,-,-,-,-,-
AGAUNTZA,1991-01-02,0.237,0.857,-,0.857,-,-,-,-,-,-,-,-,-,-,-
AGAUNTZA,1991-01-03,0.216,0.678,-,0.678,-,-,-,-,-,-,-,-,-,-,-
AGAUNTZA,1991-01-04,0.241,0.902,-,0.902,-,-,-,-,-,-,-,-,-,-,-
AGAUNTZA,1991-01-05,0.243,0.905,-,0.905,-,-,-,-,-,-,-,-,-,-,-
AGAUNTZA,1991-01-06,0.224,0.742,-,0.742,-,-,-,-,-,-,-,-,-,-,-
AGAUNTZA,1991-01-07,0.257,1.066,-,1.066,-,-,-,-,-,-,-,-,-,-,-
AGAUNTZA,1991-01-08,0.27,1.194,-,1.194,-,-,-,-,-,-,-,-,-,-,-
AGAUNTZA,1991-01-09,0.257,1.05,-,1.05,-,-,-,-,-,-,-,-,-,-,-
AGAUNTZA,1991-01-10,0.271,1.201,-,1.201,-,-,-,-,-,-,-,-,-,-,-
AGAUNTZA,1991-01-11,0.276,1.282,-,1.282,-,-,-,-,-,-,-,-,-,-,-
AGAUNTZA,1991-01-12,0.527,6.144,-,6.144,-,-,-,-,-,-,-,-,-,-,-
AGAUNTZA,1991-01-13,0.553,6.74,-,6.74,-,-,-,-,-,-,-,-,-,-,-
AGAUNTZA,1991-01-14,0.456,4.378,-,4.378,-,-,-,-,-,-,-,-,-,-,-
AGAUNTZA,1991-01-15,0.357,2.399,-,2.399,-,-,-,-,-,-,-,-,-,-,-
AGAUNTZA,1991-01-16,0.303,1.59,-,1.59,-,-,-,-,-,-,-,-,-,-,-
AGAUNTZA,1991-01-17,0.268,1.163,-,1.163,-,-,-,-,-,-,-,-,-,-,-
AGAUNTZA,1991-01-18,0.294,1.476,-,1.476,-,-,-,-,-,-,-,-,-,-,-
AGAUNTZA,1991-01-19,0.33,1.965,-,1.965,-,-,-,-,-,-,-,-,-,-,-
AGAUNTZA,1991-01-20,0.332,1.996,-,1.996,-,-,-,-,-,-,-,-,-,-,-
AGAUNTZA,1991-01-21,0.283,1.336,-,1.336,-,-,-,-,-,-,-,-,-,-,-
AGAUNTZA,1991-01-22,0.273,1.217,-,1.217,-,-,-,-,-,-,-,-,-,-,-
AGAUNTZA,1991-01-23,0.277,1.261,-,1.261,-,-,-,-,-,-,-,-,-,-,-
AGAUNTZA,1991-01-24,0.263,1.114,-,1.114,-,-,-,-,-,-,-,-,-,-,-
AGAUNTZA,1991-01-25,0.247,0.948,-,0.948,-,-,-,-,-,-,-,-,-,-,-
AGAUNTZA,1991-01-26,0.229,0.787,-,0.787,-,-,-,-,-,-,-,-,-,-,-
AGAUNTZA,1991-01-27,0.215,0.67,-,0.67,-,-,-,-,-,-,-,-,-,-,-
AGAUNTZA,1991-01-28,0.204,0.591,-,0.591,-,-,-,-,-,-,-,-,-,-,-
AGAUNTZA,1991-01-29,0.194,0.519,-,0.519,-,-,-,-,-,-,-,-,-,-,-
AGAUNTZA,1991-01-30,0.184,0.454,-,0.454,-,-,-,-,-,-,-,-,-,-,-
AGAUNTZA,1991-01-31,0.178,0.419,-,0.419,-,-,-,-,-,-,-,-,-,-,-
AGAUNTZA,1991-02-01,0.174,0.395,-,0.395,-,-,-,-,-,-,-,-,-,-,-
AGAUNTZA,1991-02-02,0.175,0.403,-,0.403,-,-,-,-,-,-,-,-,-,-,-
AGAUNTZA,1991-02-03,0.169,0.369,-,0.369,-,-,-,-,-,-,-,-,-,-,-
AGAUNTZA,1991-02-04,0.165,0.346,-,0.346,-,-,-,-,-,-,-,-,-,-,-
AGAUNTZA,1991-02-05,0.162,0.33,-,0.33,-,-,-,-,-,-,-,-,-,-,-
AGAUNTZA,1991-02-06,0.161,0.325,-,0.325,-,-,-,-,-,-,-,-,-,-,-
AGAUNTZA,1991-02-07,0.161,0.323,-,0.323,-,-,-,-,-,-,-,-,-,-,-
AGAUNTZA,1991-02-08,0.169,0.366,-,0.366,-,-,-,-,-,-,-,-,-,-,-
AGAUNTZA,1991-02-09,0.182,0.444,-,0.444,-,-,-,-,-,-,-,-,-,-,-
AGAUNTZA,1991-02-10,0.217,0.693,-,0.693,-,-,-,-,-,-,-,-,-,-,-
AGAUNTZA,1991-02-11,0.229,0.78,-,0.78,-,-,-,-,-,-,-,-,-,-,-
AGAUNTZA,1991-02-12,0.221,0.719,-,0.719,-,-,-,-,-,-,-,-,-,-,-
AGAUNTZA,1991-02-13,0.225,0.753,-,0.753,-,-,-,-,-,-,-,-,-,-,-
AGAUNTZA,1991-02-14,0.304,1.596,-,1.596,-,-,-,-,-,-,-,-,-,-,-
AGAUNTZA,1991-02-15,0.266,1.147,-,1.147,-,-,-,-,-,-,-,-,-,-,-
AGAUNTZA,1991-02-16,0.298,1.536,-,1.536,-,-,-,-,-,-,-,-,-,-,-
AGAUNTZA,1991-02-17,0.394,3.086,-,3.086,-,-,-,-,-,-,-,-,-,-,-
AGAUNTZA,1991-02-18,0.384,2.891,-,2.891,-,-,-,-,-,-,-,-,-,-,-
AGAUNTZA,1991-02-19,0.335,2.039,-,2.039,-,-,-,-,-,-,-,-,-,-,-
AGAUNTZA,1991-02-20,0.307,1.641,-,1.641,-,-,-,-,-,-,-,-,-,-,-
AGAUNTZA,1991-02-21,0.279,1.289,-,1.289,-,-,-,-,-,-,-,-,-,-,-
AGAUNTZA,1991-02-22,0.266,1.137,-,1.137,-,-,-,-,-,-,-,-,-,-,-
AGAUNTZA,1991-02-23,0.247,0.948,-,0.948,-,-,-,-,-,-,-,-,-,-,-
AGAUNTZA,1991-02-24,0.238,0.864,-,0.864,-,-,-,-,-,-,-,-,-,-,-
AGAUNTZA,1991-02-25,0.239,0.871,-,0.871,-,-,-,-,-,-,-,-,-,-,-
AGAUNTZA,1991-02-26,0.233,0.817,-,0.817,-,-,-,-,-,-,-,-,-,-,-
AGAUNTZA,1991-02-27,0.225,0.751,-,0.751,-,-,-,-,-,-,-,-,-,-,-
AGAUNTZA,1991-02-28,0.211,0.641,-,0.641,-,-,-,-,-,-,-,-,-,-,-
AGAUNTZA,1991-03-01,0.204,0.585,-,0.585,-,-,-,-,-,-,-,-,-,-,-
AGAUNTZA,1991-03-02,0.199,0.554,-,0.554,-,-,-,-,-,-,-,-,-,-,-
AGAUNTZA,1991-03-03,0.195,0.522,-,0.522,-,-,-,-,-,-,-,-,-,-,-
AGAUNTZA,1991-03-04,0.207,0.616,-,0.616,-,-,-,-,-,-,-,-,-,-,-
AGAUNTZA,1991-03-05,0.26,1.082,-,1.082,-,-,-,-,-,-,-,-,-,-,-
AGAUNTZA,1991-03-06,0.261,1.092,-,1.092,-,-,-,-,-,-,-,-,-,-,-
AGAUNTZA,1991-03-07,0.273,1.24,-,1.24,-,-,-,-,-,-,-,-,-,-,-
AGAUNTZA,1991-03-08,0.294,1.48,-,1.48,-,-,-,-,-,-,-,-,-,-,-
AGAUNTZA,1991-03-09,0.276,1.246,-,1.246,-,-,-,-,-,-,-,-,-,-,-
AGAUNTZA,1991-03-10,0.265,1.127,-,1.127,-,-,-,-,-,-,-,-,-,-,-
AGAUNTZA,1991-03-11,0.252,0.998,-,0.998,-,-,-,-,-,-,-,-,-,-,-
AGAUNTZA,1991-03-12,0.244,0.914,-,0.914,-,-,-,-,-,-,-,-,-,-,-
AGAUNTZA,1991-03-13,0.237,0.858,-,0.858,-,-,-,-,-,-,-,-,-,-,-
AGAUNTZA,1991-03-14,0.213,0.652,-,0.652,-,-,-,-,-,-,-,-,-,-,-
AGAUNTZA,1991-03-15,0.187,0.473,-,0.473,-,-,-,-,-,-,-,-,-,-,-
AGAUNTZA,1991-03-16,0.186,0.466,-,0.466,-,-,-,-,-,-,-,-,-,-,-
AGAUNTZA,1991-03-17,0.205,0.592,-,0.592,-,-,-,-,-,-,-,-,-,-,-
AGAUNTZA,1991-03-18,0.204,0.586,-,0.586,-,-,-,-,-,-,-,-,-,-,-
AGAUNTZA,1991-03-19,0.196,0.533,-,0.533,-,-,-,-,-,-,-,-,-,-,-
AGAUNTZA,1991-03-20,0.19,0.493,-,0.493,-,-,-,-,-,-,-,-,-,-,-
AGAUNTZA,1991-03-21,0.184,0.455,-,0.455,-,-,-,-,-,-,-,-,-,-,-
AGAUNTZA,1991-03-22,0.178,0.42,-,0.42,-,-,-,-,-,-,-,-,-,-,-
AGAUNTZA,1991-03-23,0.236,0.97,-,0.97,-,-,-,-,-,-,-,-,-,-,-
AGAUNTZA,1991-03-24,0.783,15.462,-,15.462,-,-,-,-,-,-,-,-,-,-,-
AGAUNTZA,1991-03-25,0.897,18.058,-,18.058,-,-,-,-,-,-,-,-,-,-,-
AGAUNTZA,1991-03-26,0.604,8.194,-,8.194,-,-,-,-,-,-,-,-,-,-,-
AGAUNTZA,1991-03-27,0.445,4.123,-,4.123,-,-,-,-,-,-,-,-,-,-,-
AGAUNTZA,1991-03-28,0.371,2.633,-,2.633,-,-,-,-,-,-,-,-,-,-,-
AGAUNTZA,1991-03-29,0.339,2.103,-,2.103,-,-,-,-,-,-,-,-,-,-,-
AGAUNTZA,1991-03-30,0.314,1.742,-,1.742,-,-,-,-,-,-,-,-,-,-,-
AGAUNTZA,1991-03-31,0.277,1.262,-,1.262,-,-,-,-,-,-,-,-,-,-,-
AGAUNTZA,1991-04-01,0.251,0.984,-,0.984,-,-,-,-,-,-,-,-,-,-,-
AGAUNTZA,1991-04-02,0.237,0.852,-,0.852,-,-,-,-,-,-,-,-,-,-,-
AGAUNTZA,1991-04-03,0.23,0.794,-,0.794,-,-,-,-,-,-,-,-,-,-,-
AGAUNTZA,1991-04-04,0.279,1.707,-,1.707,-,-,-,-,-,-,-,-,-,-,-
AGAUNTZA,1991-04-05,0.528,6.102,-,6.102,-,-,-,-,-,-,-,-,-,-,-
AGAUNTZA,1991-04-06,0.526,6.076,-,6.076,-,-,-,-,-,-,-,-,-,-,-
AGAUNTZA,1991-04-07,0.407,3.323,-,3.323,-,-,-,-,-,-,-,-,-,-,-
AGAUNTZA,1991-04-08,0.354,2.36,-,2.36,-,-,-,-,-,-,-,-,-,-,-
AGAUNTZA,1991-04-09,0.321,1.832,-,1.832,-,-,-,-,-,-,-,-,-,-,-
AGAUNTZA,1991-04-10,0.29,1.422,-,1.422,-,-,-,-,-,-,-,-,-,-,-
AGAUNTZA,1991-04-11,0.263,1.108,-,1.108,-,-,-,-,-,-,-,-,-,-,-
AGAUNTZA,1991-04-12,0.259,1.122,-,1.122,-,-,-,-,-,-,-,-,-,-,-
AGAUNTZA,1991-04-13,0.778,13.717,-,13.717,-,-,-,-,-,-,-,-,-,-,-
AGAUNTZA,1991-04-14,0.673,10.198,-,10.198,-,-,-,-,-,-,-,-,-,-,-
AGAUNTZA,1991-04-15,0.591,7.904,-,7.904,-,-,-,-,-,-,-,-,-,-,-
AGAUNTZA,1991-04-16,0.638,9.168,-,9.168,-,-,-,-,-,-,-,-,-,-,-
AGAUNTZA,1991-04-17,0.518,5.859,-,5.859,-,-,-,-,-,-,-,-,-,-,-
AGAUNTZA,1991-04-18,0.403,3.245,-,3.245,-,-,-,-,-,-,-,-,-,-,-
AGAUNTZA,1991-04-19,0.355,2.352,-,2.352,-,-,-,-,-,-,-,-,-,-,-
AGAUNTZA,1991-04-20,0.444,4.095,-,4.095,-,-,-,-,-,-,-,-,-,-,-
AGAUNTZA,1991-04-21,0.421,3.587,-,3.587,-,-,-,-,-,-,-,-,-,-,-
AGAUNTZA,1991-04-22,0.365,2.523,-,2.523,-,-,-,-,-,-,-,-,-,-,-
AGAUNTZA,1991-04-23,0.328,1.928,-,1.928,-,-,-,-,-,-,-,-,-,-,-
AGAUNTZA,1991-04-24,0.306,1.626,-,1.626,-,-,-,-,-,-,-,-,-,-,-
AGAUNTZA,1991-04-25,0.338,2.085,-,2.085,-,-,-,-,-,-,-,-,-,-,-
AGAUNTZA,1991-04-26,0.681,10.722,-,10.722,-,-,-,-,-,-,-,-,-,-,-
AGAUNTZA,1991-04-27,0.538,6.367,-,6.367,-,-,-,-,-,-,-,-,-,-,-
AGAUNTZA,1991-04-28,0.475,4.774,-,4.774,-,-,-,-,-,-,-,-,-,-,-
AGAUNTZA,1991-04-29,0.423,3.646,-,3.646,-,-,-,-,-,-,-,-,-,-,-
AGAUNTZA,1991-04-30,0.387,2.911,-,2.911,-,-,-,-,-,-,-,-,-,-,-
AGAUNTZA,1991-05-01,0.405,3.341,-,3.341,-,-,-,-,-,-,-,-,-,-,-
AGAUNTZA,1991-05-02,0.974,21.087,-,21.087,-,-,-,-,-,-,-,-,-,-,-
AGAUNTZA,1991-05-03,0.715,11.698,-,11.698,-,-,-,-,-,-,-,-,-,-,-
AGAUNTZA,1991-05-04,0.545,6.586,-,6.586,-,-,-,-,-,-,-,-,-,-,-
AGAUNTZA,1991-05-05,0.998,21.814,-,21.814,-,-,-,-,-,-,-,-,-,-,-
AGAUNTZA,1991-05-06,0.771,13.413,-,13.413,-,-,-,-,-,-,-,-,-,-,-
AGAUNTZA,1991-05-07,0.591,7.795,-,7.795,-,-,-,-,-,-,-,-,-,-,-
AGAUNTZA,1991-05-08,0.511,5.658,-,5.658,-,-,-,-,-,-,-,-,-,-,-
AGAUNTZA,1991-05-10,0.774,13.554,-,13.554,-,-,-,-,-,-,-,-,-,-,-
AGAUNTZA,1991-05-11,0.554,6.799,-,6.799,-,-,-,-,-,-,-,-,-,-,-
AGAUNTZA,1991-05-12,0.448,4.178,-,4.178,-,-,-,-,-,-,-,-,-,-,-
AGAUNTZA,1991-05-13,0.642,9.274,-,9.274,-,-,-,-,-,-,-,-,-,-,-
AGAUNTZA,1991-05-14,0.526,6.044,-,6.044,-,-,-,-,-,-,-,-,-,-,-
AGAUNTZA,1991-05-15,0.46,4.433,-,4.433,-,-,-,-,-,-,-,-,-,-,-
AGAUNTZA,1991-05-16,0.409,3.358,-,3.358,-,-,-,-,-,-,-,-,-,-,-
AGAUNTZA,1991-05-17,0.359,2.422,-,2.422,-,-,-,-,-,-,-,-,-,-,-
AGAUNTZA,1991-05-18,0.319,1.809,-,1.809,-,-,-,-,-,-,-,-,-,-,-
AGAUNTZA,1991-05-19,0.307,1.632,-,1.632,-,-,-,-,-,-,-,-,-,-,-
AGAUNTZA,1991-05-20,0.286,1.368,-,1.368,-,-,-,-,-,-,-,-,-,-,-
AGAUNTZA,1991-05-21,0.274,1.234,-,1.234,-,-,-,-,-,-,-,-,-,-,-
AGAUNTZA,1991-05-22,0.259,1.067,-,1.067,-,-,-,-,-,-,-,-,-,-,-
AGAUNTZA,1991-05-23,0.238,0.864,-,0.864,-,-,-,-,-,-,-,-,-,-,-
AGAUNTZA,1991-05-24,0.221,0.716,-,0.716,-,-,-,-,-,-,-,-,-,-,-
AGAUNTZA,1991-05-25,0.201,0.564,-,0.564,-,-,-,-,-,-,-,-,-,-,-
AGAUNTZA,1991-05-26,0.189,0.487,-,0.487,-,-,-,-,-,-,-,-,-,-,-
AGAUNTZA,1991-05-27,0.177,0.41,-,0.41,-,-,-,-,-,-,-,-,-,-,-
AGAUNTZA,1991-05-28,0.16,0.321,-,0.321,-,-,-,-,-,-,-,-,-,-,-
AGAUNTZA,1991-05-29,0.156,0.302,-,0.302,-,-,-,-,-,-,-,-,-,-,-
AGAUNTZA,1991-05-30,0.154,0.292,-,0.292,-,-,-,-,-,-,-,-,-,-,-
AGAUNTZA,1991-05-31,0.151,0.278,-,0.278,-,-,-,-,-,-,-,-,-,-,-
AGAUNTZA,1991-06-01,0.144,0.246,-,0.246,-,-,-,-,-,-,-,-,-,-,-
AGAUNTZA,1991-06-02,0.146,0.253,-,0.253,-,-,-,-,-,-,-,-,-,-,-
AGAUNTZA,1991-06-03,0.143,0.24,-,0.24,-,-,-,-,-,-,-,-,-,-,-
AGAUNTZA,1991-06-04,0.139,0.226,-,0.226,-,-,-,-,-,-,-,-,-,-,-
AGAUNTZA,1991-06-05,0.135,0.208,-,0.208,-,-,-,-,-,-,-,-,-,-,-
AGAUNTZA,1991-06-06,0.141,0.233,-,0.233,-,-,-,-,-,-,-,-,-,-,-
AGAUNTZA,1991-06-07,0.146,0.255,-,0.255,-,-,-,-,-,-,-,-,-,-,-
AGAUNTZA,1991-06-08,0.153,0.286,-,0.286,-,-,-,-,-,-,-,-,-,-,-
AGAUNTZA,1991-06-09,0.143,0.242,-,0.242,-,-,-,-,-,-,-,-,-,-,-
AGAUNTZA,1991-06-10,0.131,0.194,-,0.194,-,-,-,-,-,-,-,-,-,-,-
AGAUNTZA,1991-06-11,0.126,0.177,-,0.177,-,-,-,-,-,-,-,-,-,-,-
AGAUNTZA,1991-06-12,0.12,0.157,-,0.157,-,-,-,-,-,-,-,-,-,-,-
AGAUNTZA,1991-06-13,0.121,0.158,-,0.158,-,-,-,-,-,-,-,-,-,-,-
AGAUNTZA,1991-06-14,0.121,0.159,-,0.159,-,-,-,-,-,-,-,-,-,-,-
AGAUNTZA,1991-06-15,0.114,0.139,-,0.139,-,-,-,-,-,-,-,-,-,-,-
AGAUNTZA,1991-06-16,0.119,0.154,-,0.154,-,-,-,-,-,-,-,-,-,-,-
AGAUNTZA,1991-06-17,0.136,0.217,-,0.217,-,-,-,-,-,-,-,-,-,-,-
AGAUNTZA,1991-06-18,0.176,0.413,-,0.413,-,-,-,-,-,-,-,-,-,-,-
AGAUNTZA,1991-06-19,0.139,0.228,-,0.228,-,-,-,-,-,-,-,-,-,-,-
AGAUNTZA,1991-06-20,0.124,0.169,-,0.169,-,-,-,-,-,-,-,-,-,-,-
AGAUNTZA,1991-06-21,0.118,0.149,-,0.149,-,-,-,-,-,-,-,-,-,-,-
AGAUNTZA,1991-06-22,0.114,0.137,-,0.137,-,-,-,-,-,-,-,-,-,-,-
AGAUNTZA,1991-06-23,0.114,0.136,-,0.136,-,-,-,-,-,-,-,-,-,-,-
AGAUNTZA,1991-06-24,0.109,0.123,-,0.123,-,-,-,-,-,-,-,-,-,-,-
AGAUNTZA,1991-06-25,0.109,0.125,-,0.125,-,-,-,-,-,-,-,-,-,-,-
AGAUNTZA,1991-06-26,0.108,0.119,-,0.119,-,-,-,-,-,-,-,-,-,-,-
AGAUNTZA,1991-06-27,0.103,0.108,-,0.108,-,-,-,-,-,-,-,-,-,-,-
AGAUNTZA,1991-06-28,0.102,0.103,-,0.103,-,-,-,-,-,-,-,-,-,-,-
AGAUNTZA,1991-06-29,0.1,0.099,-,0.099,-,-,-,-,-,-,-,-,-,-,-
AGAUNTZA,1991-06-30,0.1,0.099,-,0.099,-,-,-,-,-,-,-,-,-,-,-
AGAUNTZA,1991-07-01,0.101,0.102,-,0.102,-,-,-,-,-,-,-,-,-,-,-
AGAUNTZA,1991-07-02,0.106,0.116,-,0.116,-,-,-,-,-,-,-,-,-,-,-
AGAUNTZA,1991-07-03,0.144,0.246,-,0.246,-,-,-,-,-,-,-,-,-,-,-
AGAUNTZA,1991-07-04,0.107,0.118,-,0.118,-,-,-,-,-,-,-,-,-,-,-
AGAUNTZA,1991-07-05,0.142,0.238,-,0.238,-,-,-,-,-,-,-,-,-,-,-
AGAUNTZA,1991-07-06,0.102,0.105,-,0.105,-,-,-,-,-,-,-,-,-,-,-
AGAUNTZA,1991-07-07,0.1,0.099,-,0.099,-,-,-,-,-,-,-,-,-,-,-
AGAUNTZA,1991-07-08,0.096,0.09,-,0.09,-,-,-,-,-,-,-,-,-,-,-
AGAUNTZA,1991-07-09,0.092,0.08,-,0.08,-,-,-,-,-,-,-,-,-,-,-
AGAUNTZA,1991-07-10,0.094,0.085,-,0.085,-,-,-,-,-,-,-,-,-,-,-
AGAUNTZA,1991-07-11,0.094,0.084,-,0.084,-,-,-,-,-,-,-,-,-,-,-
AGAUNTZA,1991-07-12,0.096,0.09,-,0.09,-,-,-,-,-,-,-,-,-,-,-
AGAUNTZA,1991-07-13,0.1,0.099,-,0.099,-,-,-,-,-,-,-,-,-,-,-
AGAUNTZA,1991-07-14,0.1,0.1,-,0.1,-,-,-,-,-,-,-,-,-,-,-
AGAUNTZA,1991-07-15,0.105,0.113,-,0.113,-,-,-,-,-,-,-,-,-,-,-
AGAUNTZA,1991-07-16,0.104,0.109,-,0.109,-,-,-,-,-,-,-,-,-,-,-
AGAUNTZA,1991-07-17,0.093,0.083,-,0.083,-,-,-,-,-,-,-,-,-,-,-
AGAUNTZA,1991-07-18,0.09,0.077,-,0.077,-,-,-,-,-,-,-,-,-,-,-
AGAUNTZA,1991-07-19,0.094,0.085,-,0.085,-,-,-,-,-,-,-,-,-,-,-
AGAUNTZA,1991-07-20,0.093,0.082,-,0.082,-,-,-,-,-,-,-,-,-,-,-
AGAUNTZA,1991-07-21,0.096,0.09,-,0.09,-,-,-,-,-,-,-,-,-,-,-
AGAUNTZA,1991-07-22,0.1,0.099,-,0.099,-,-,-,-,-,-,-,-,-,-,-
AGAUNTZA,1991-07-23,0.101,0.102,-,0.102,-,-,-,-,-,-,-,-,-,-,-
AGAUNTZA,1991-07-24,0.102,0.105,-,0.105,-,-,-,-,-,-,-,-,-,-,-
AGAUNTZA,1991-07-25,0.105,0.112,-,0.112,-,-,-,-,-,-,-,-,-,-,-
AGAUNTZA,1991-07-26,0.099,0.097,-,0.097,-,-,-,-,-,-,-,-,-,-,-
AGAUNTZA,1991-07-27,0.093,0.083,-,0.083,-,-,-,-,-,-,-,-,-,-,-
AGAUNTZA,1991-07-28,0.089,0.075,-,0.075,-,-,-,-,-,-,-,-,-,-,-
AGAUNTZA,1991-07-29,0.091,0.079,-,0.079,-,-,-,-,-,-,-,-,-,-,-
AGAUNTZA,1991-07-30,0.091,0.078,-,0.078,-,-,-,-,-,-,-,-,-,-,-
AGAUNTZA,1991-07-31,0.093,0.082,-,0.082,-,-,-,-,-,-,-,-,-,-,-
AGAUNTZA,1991-08-01,0.096,0.091,-,0.091,-,-,-,-,-,-,-,-,-,-,-
AGAUNTZA,1991-08-02,0.094,0.086,-,0.086,-,-,-,-,-,-,-,-,-,-,-
AGAUNTZA,1991-08-03,0.092,0.08,-,0.08,-,-,-,-,-,-,-,-,-,-,-
AGAUNTZA,1991-08-04,0.094,0.084,-,0.084,-,-,-,-,-,-,-,-,-,-,-
AGAUNTZA,1991-08-05,0.094,0.086,-,0.086,-,-,-,-,-,-,-,-,-,-,-
AGAUNTZA,1991-08-06,0.095,0.088,-,0.088,-,-,-,-,-,-,-,-,-,-,-
AGAUNTZA,1991-08-07,0.095,0.088,-,0.088,-,-,-,-,-,-,-,-,-,-,-
AGAUNTZA,1991-08-08,0.101,0.103,-,0.103,-,-,-,-,-,-,-,-,-,-,-
AGAUNTZA,1991-08-09,0.11,0.129,-,0.129,-,-,-,-,-,-,-,-,-,-,-
AGAUNTZA,1991-08-10,0.212,0.674,-,0.674,-,-,-,-,-,-,-,-,-,-,-
AGAUNTZA,1991-08-11,0.139,0.233,-,0.233,-,-,-,-,-,-,-,-,-,-,-
AGAUNTZA,1991-08-12,0.096,0.092,-,0.092,-,-,-,-,-,-,-,-,-,-,-
AGAUNTZA,1991-08-13,0.089,0.074,-,0.074,-,-,-,-,-,-,-,-,-,-,-
AGAUNTZA,1991-08-14,0.091,0.079,-,0.079,-,-,-,-,-,-,-,-,-,-,-
AGAUNTZA,1991-08-15,0.094,0.086,-,0.086,-,-,-,-,-,-,-,-,-,-,-
AGAUNTZA,1991-08-16,0.091,0.078,-,0.078,-,-,-,-,-,-,-,-,-,-,-
AGAUNTZA,1991-08-17,0.09,0.076,-,0.076,-,-,-,-,-,-,-,-,-,-,-
AGAUNTZA,1991-08-18,0.092,0.082,-,0.082,-,-,-,-,-,-,-,-,-,-,-
AGAUNTZA,1991-08-19,0.091,0.08,-,0.08,-,-,-,-,-,-,-,-,-,-,-
AGAUNTZA,1991-08-20,0.091,0.079,-,0.079,-,-,-,-,-,-,-,-,-,-,-
AGAUNTZA,1991-08-21,0.092,0.081,-,0.081,-,-,-,-,-,-,-,-,-,-,-
AGAUNTZA,1991-08-22,0.091,0.079,-,0.079,-,-,-,-,-,-,-,-,-,-,-
AGAUNTZA,1991-08-23,0.092,0.082,-,0.082,-,-,-,-,-,-,-,-,-,-,-
AGAUNTZA,1991-08-24,0.092,0.08,-,0.08,-,-,-,-,-,-,-,-,-,-,-
AGAUNTZA,1991-08-25,0.09,0.076,-,0.076,-,-,-,-,-,-,-,-,-,-,-
AGAUNTZA,1991-08-26,0.088,0.072,-,0.072,-,-,-,-,-,-,-,-,-,-,-
AGAUNTZA,1991-08-27,0.089,0.075,-,0.075,-,-,-,-,-,-,-,-,-,-,-
AGAUNTZA,1991-08-28,0.094,0.085,-,0.085,-,-,-,-,-,-,-,-,-,-,-
AGAUNTZA,1991-08-29,0.093,0.083,-,0.083,-,-,-,-,-,-,-,-,-,-,-
AGAUNTZA,1991-08-30,0.094,0.086,-,0.086,-,-,-,-,-,-,-,-,-,-,-
AGAUNTZA,1991-08-31,0.095,0.087,-,0.087,-,-,-,-,-,-,-,-,-,-,-
AGAUNTZA,1991-09-01,0.094,0.085,-,0.085,-,-,-,-,-,-,-,-,-,-,-
AGAUNTZA,1991-09-02,0.096,0.09,-,0.09,-,-,-,-,-,-,-,-,-,-,-
AGAUNTZA,1991-09-03,0.131,0.299,-,0.299,-,-,-,-,-,-,-,-,-,-,-
AGAUNTZA,1991-09-04,0.337,2.578,-,2.578,-,-,-,-,-,-,-,-,-,-,-
AGAUNTZA,1991-09-05,0.14,0.237,-,0.237,-,-,-,-,-,-,-,-,-,-,-
AGAUNTZA,1991-09-06,0.107,0.119,-,0.119,-,-,-,-,-,-,-,-,-,-,-
AGAUNTZA,1991-09-07,0.104,0.108,-,0.108,-,-,-,-,-,-,-,-,-,-,-
AGAUNTZA,1991-09-08,0.099,0.096,-,0.096,-,-,-,-,-,-,-,-,-,-,-
AGAUNTZA,1991-09-09,0.089,0.074,-,0.074,-,-,-,-,-,-,-,-,-,-,-
AGAUNTZA,1991-09-10,0.149,0.268,-,0.268,-,-,-,-,-,-,-,-,-,-,-
AGAUNTZA,1991-09-11,0.176,0.431,-,0.431,-,-,-,-,-,-,-,-,-,-,-
AGAUNTZA,1991-09-12,0.148,0.265,-,0.265,-,-,-,-,-,-,-,-,-,-,-
AGAUNTZA,1991-09-13,0.123,0.165,-,0.165,-,-,-,-,-,-,-,-,-,-,-
AGAUNTZA,1991-09-14,0.096,0.091,-,0.091,-,-,-,-,-,-,-,-,-,-,-
AGAUNTZA,1991-09-15,0.086,0.069,-,0.069,-,-,-,-,-,-,-,-,-,-,-
AGAUNTZA,1991-09-16,0.088,0.072,-,0.072,-,-,-,-,-,-,-,-,-,-,-
AGAUNTZA,1991-09-17,0.09,0.076,-,0.076,-,-,-,-,-,-,-,-,-,-,-
AGAUNTZA,1991-09-18,0.091,0.078,-,0.078,-,-,-,-,-,-,-,-,-,-,-
AGAUNTZA,1991-09-19,0.093,0.083,-,0.083,-,-,-,-,-,-,-,-,-,-,-
AGAUNTZA,1991-09-20,0.092,0.08,-,0.08,-,-,-,-,-,-,-,-,-,-,-
AGAUNTZA,1991-09-21,0.091,0.08,-,0.08,-,-,-,-,-,-,-,-,-,-,-
AGAUNTZA,1991-09-22,0.091,0.079,-,0.079,-,-,-,-,-,-,-,-,-,-,-
AGAUNTZA,1991-09-23,0.093,0.083,-,0.083,-,-,-,-,-,-,-,-,-,-,-
AGAUNTZA,1991-09-24,0.094,0.085,-,0.085,-,-,-,-,-,-,-,-,-,-,-
AGAUNTZA,1991-09-25,0.129,0.227,-,0.227,-,-,-,-,-,-,-,-,-,-,-
AGAUNTZA,1991-09-26,0.166,0.355,-,0.355,-,-,-,-,-,-,-,-,-,-,-
AGAUNTZA,1991-09-27,0.134,0.207,-,0.207,-,-,-,-,-,-,-,-,-,-,-
AGAUNTZA,1991-09-28,0.115,0.14,-,0.14,-,-,-,-,-,-,-,-,-,-,-
AGAUNTZA,1991-09-29,0.123,0.167,-,0.167,-,-,-,-,-,-,-,-,-,-,-
AGAUNTZA,1991-09-30,0.565,8.772,-,8.772,-,-,-,-,-,-,-,-,-,-,-
AIXOLA,1990-10-01,0.047,0.019,-,0.019,2.4,16.3,-,-,-,-,-,-,-,-,-
AIXOLA,1990-10-02,0.048,0.02,-,0.02,0.0,17.4,-,-,-,-,-,-,-,-,-
AIXOLA,1990-10-03,0.047,0.019,-,0.019,0.0,17.6,-,-,-,-,-,-,-,-,-
AIXOLA,1990-10-04,0.061,0.028,-,0.028,15.8,12.0,-,-,-,-,-,-,-,-,-
AIXOLA,1990-10-05,0.049,0.022,-,0.022,0.0,10.3,-,-,-,-,-,-,-,-,-
AIXOLA,1990-10-06,0.048,0.02,-,0.02,0.0,12.3,-,-,-,-,-,-,-,-,-
AIXOLA,1990-10-07,0.071,0.038,-,0.038,37.5,11.0,-,-,-,-,-,-,-,-,-
AIXOLA,1990-10-08,0.079,0.052,-,0.052,2.3,11.5,-,-,-,-,-,-,-,-,-
AIXOLA,1990-10-09,0.058,0.026,-,0.026,0.0,10.7,-,-,-,-,-,-,-,-,-
AIXOLA,1990-10-10,0.055,0.025,-,0.025,0.0,10.1,-,-,-,-,-,-,-,-,-
AIXOLA,1990-10-11,0.052,0.024,-,0.024,0.0,14.4,-,-,-,-,-,-,-,-,-
AIXOLA,1990-10-12,0.05,0.023,-,0.023,0.0,16.1,-,-,-,-,-,-,-,-,-
AIXOLA,1990-10-13,0.049,0.022,-,0.022,0.0,20.1,-,-,-,-,-,-,-,-,-
AIXOLA,1990-10-14,0.048,0.02,-,0.02,0.0,18.9,-,-,-,-,-,-,-,-,-
AIXOLA,1990-10-15,0.049,0.022,-,0.022,1.8,18.9,-,-,-,-,-,-,-,-,-
AIXOLA,1990-10-16,0.049,0.021,-,0.021,0.0,16.5,-,-,-,-,-,-,-,-,-
AIXOLA,1990-10-17,0.048,0.02,-,0.02,0.0,15.5,-,-,-,-,-,-,-,-,-
AIXOLA,1990-10-18,0.048,0.02,-,0.02,0.0,14.0,-,-,-,-,-,-,-,-,-
AIXOLA,1990-10-19,0.048,0.02,-,0.02,3.7,12.0,-,-,-,-,-,-,-,-,-
AIXOLA,1990-10-20,0.048,0.02,-,0.02,0.1,11.6,-,-,-,-,-,-,-,-,-
AIXOLA,1990-10-21,0.048,0.02,-,0.02,0.0,12.3,-,-,-,-,-,-,-,-,-
AIXOLA,1990-10-22,0.048,0.02,-,0.02,0.1,14.4,-,-,-,-,-,-,-,-,-
AIXOLA,1990-10-23,0.048,0.02,-,0.02,0.3,14.3,-,-,-,-,-,-,-,-,-
AIXOLA,1990-10-24,0.046,0.018,-,0.018,1.5,12.3,-,-,-,-,-,-,-,-,-
AIXOLA,1990-10-25,0.047,0.019,-,0.019,0.1,12.1,-,-,-,-,-,-,-,-,-
AIXOLA,1990-10-26,0.05,0.022,-,0.022,8.4,10.2,-,-,-,-,-,-,-,-,-
AIXOLA,1990-10-27,0.048,0.021,-,0.021,0.8,8.6,-,-,-,-,-,-,-,-,-
AIXOLA,1990-10-28,0.072,0.04,-,0.04,39.1,12.1,-,-,-,-,-,-,-,-,-
AIXOLA,1990-10-29,0.115,0.105,-,0.105,21.4,15.6,-,-,-,-,-,-,-,-,-
AIXOLA,1990-10-30,0.07,0.032,-,0.032,6.1,15.8,-,-,-,-,-,-,-,-,-
AIXOLA,1990-10-31,0.096,0.068,-,0.068,-,-,-,-,-,-,-,-,-,-,-
AIXOLA,1990-11-01,0.087,0.049,-,0.049,1.9,9.4,-,-,-,-,-,-,-,-,-
AIXOLA,1990-11-02,0.077,0.035,-,0.035,12.5,7.8,-,-,-,-,-,-,-,-,-
AIXOLA,1990-11-03,0.13,0.143,-,0.143,26.9,6.8,-,-,-,-,-,-,-,-,-
AIXOLA,1990-11-04,0.104,0.073,-,0.073,2.9,6.0,-,-,-,-,-,-,-,-,-
AIXOLA,1990-11-05,0.084,0.042,-,0.042,0.0,3.7,-,-,-,-,-,-,-,-,-
AIXOLA,1990-11-06,0.075,0.034,-,0.034,0.0,3.9,-,-,-,-,-,-,-,-,-
AIXOLA,1990-11-07,0.069,0.032,-,0.032,0.1,9.6,-,-,-,-,-,-,-,-,-
AIXOLA,1990-11-08,0.065,0.03,-,0.03,0.2,14.0,-,-,-,-,-,-,-,-,-
AIXOLA,1990-11-09,0.064,0.029,-,0.029,0.0,12.6,-,-,-,-,-,-,-,-,-
AIXOLA,1990-11-10,0.068,0.031,-,0.031,9.0,11.7,-,-,-,-,-,-,-,-,-
AIXOLA,1990-11-11,0.066,0.03,-,0.03,1.1,9.0,-,-,-,-,-,-,-,-,-
AIXOLA,1990-11-12,0.064,0.029,-,0.029,0.0,8.9,-,-,-,-,-,-,-,-,-